Погода в Рязани

Погода в Рязани : погода сейчас, прогноз погоды и архив. Всё, что Вы хотите узнать о погоде в Рязани!

Хотите узнать прогноз погоды в Рязани? Тогда Вам сюда: Погода в Рязани

Поиск расширенной информации на нашем сайте:

Полезная информация:

Другие новости

Новости СМИ2

Главная страница сайта

Новости сайта

03.07.2017

Напоминаем, что на нашем специализированном сайте Метеоцентр.Азия вы можете получить высокодетализированные автоматические прогнозы погоды по пунктам России, СНГ и мира в авиационном формате (включающие направление и скорость ветра, видимость, явления погоды, количество и форму облачности, нижнюю и верхнюю границу облачности).

Рекомендуем:

Погода в Рязани - сегодня

Время (UTC), дата Ветер
(°,м/с) 
Видим.   Явления Облачность Т
(°С)
Тd
(°С)
f(%) Тe
(°С)
Pmin
(гПа)
dP
(гПа)
Po
(мм)
O2
(г/м3)
Тmin Tmax R s Состояние
почвы
03 22.05.19 200 (Ю) 20000 м    9/0 средняя, верхняя 
[Ac cast|Ci fib]
+14.8 +9.6 71 +16  1014.2  -0.9  747  284  +11.1        сухая 
06 22.05.19 250 (З) 20000 м    8/3 600 м верхняя 
[Sc|Ci fib]
+21 +6.8 40 +21  1013.3  -0.5  746  278           
09 22.05.19 220 (ЮЗ) 20000 м    8/4 600 м верхняя 
[Cu hum|Ci fib]
+24 +5.2 30 +24  1011.8  -1.3  745  275           
12 22.05.19 220 (ЮЗ) 20000 м    8/4 600 м верхняя 
[Cu hum|Ci fib]
+24.6 +1.5 22 +25  1010.3  -1.4  744  275           
15 22.05.19 230 (ЮЗ) 20000 м    8/3 600 м верхняя 
[Cu hum|Cs]
+23.5 +5.5 31 +24  1008.9  -1.4  743  275    +25.5       
18 22.05.19 180 (Ю) 20000 м    8/0 средняя, верхняя 
[Ac trans|Ci fib]
+16.7 +10.3 66 +20  1009.2  -0.1  743  280           
21 22.05.19 170 (Ю) 20000 м    4/0 средняя 
[Ac trans]
+14.5 +11.7 83 +20  1008.4  -0.9  742  282           
00 23.05.19 170 (Ю) 10 км    8/0 средняя 
[Ac trans]
+12.6 +11.5 93 +17  1007.3  -1.2  742  283           
03 23.05.19 210 (ЮЗ) 20000 м    3/0 средняя 
[Ac trans]
+14.8 +12 83 +20  1006  -1.1  741  281  +12.1        сухая 
06 23.05.19 280 (З) 20000 м    3/0 верхняя 
[Ci fib]
+21.4 +13.2 60 +27  1004.8  -0.9  740  274           
09 23.05.19 260 (З) 20000 м    8/8 600 м 
[Cu hum]
+25 +8.7 35 +25  1003.6  -0.9  739  271           
12 23.05.19 270 (З) 20000 м  {гроза, ливн. осадки}  6/1 600 м средняя 
[Cu hum|Ac trans]
+24.8 +11.7 44 +29  1002.6  -1  739  271           
15 23.05.19 290 (З) 1{12}  10 км  гроза, ливневой дождь  10/8 300 м кучево-дожд., средняя 
[Cb calv|Ac trans]
+17 +15.8 93 +29  1003.8  0.8  739  277    +25.2     
18 23.05.19 тихо ()   10 км  {гроза, ливн. осадки}  6/3 600 м средняя 
[Sc|Ac trans]
+14.9 +14.5 97 +23  1004.7  0.8  740  280           
21 23.05.19 030 (СВ) 10 км  слаб. ливневой дождь  10/10 300 м кучево-дожд. 
[Cb cap]
+13.8 +13.5 98 +20  1006.6  1.7  741  281           
00 24.05.19 050 (СВ) н/о    н/о 
+12.8 +12.1 96 +18  1008.1  1.4  742  283           
03 24.05.19 040 (СВ) 10 км    8/4 600 м средняя 
[Sc|Ac trans]
+12.1 +10.4 89 +14  1010.2  2.1  744  285  +11.9      влажная 
06 24.05.19 050 (СВ) 20000 м    10/10 300 м кучево-дожд. 
[Cb cap]
+11.7 +9.6 87 +13  1012.4  2.1  745  286  +11.1         
09 24.05.19 050 (СВ) 20000 м    9/9 300 м кучево-дожд. 
[Cb cap]
+14.1 +8.2 68 +15  1014  1.7  746  285           
12 24.05.19 070 (В) 20000 м    8/8 300 м кучево-дожд. 
[Cb cap]
+14.9 +5 51 +16  1014  0.1  747  284           
15 24.05.19 120 (ЮВ) 20000 м    8/4 600 м верхняя 
[Cu hum|Ci fib]
+16.8 +4.4 44 +18  1013.5  -0.4  746  283    +17.5       
18 24.05.19 тихо ()   20000 м    ясно 
+9.7 +6.1 78 +10  1014.9  0.9  747  290           
21 24.05.19 130 (ЮВ) 20000 м    ясно 
+10.2 +2.2 58 +11  1015  0.2  747  290           
00 25.05.19 150 (ЮВ) 20000 м    ясно 
+8.9 +1.7 61 +8  1014.9  -0.2  747  291           
03 25.05.19 140 (ЮВ) 20000 м    3/0 верхняя 
[Ci fib]
+9.1 +1.5 59 +9  1014.7  -0.2  747  291  +7.9        влажная 
Время (UTC), дата Ветер
(°,м/с) 
Видим.   Явления Облачность Т
(°С)
Тd
(°С)
f(%) Тe
(°С)
Pmin
(гПа)
dP
(гПа)
Po
(мм)
O2
(г/м3)
Тmin Tmax R s Состояние
почвы

Для получения пояснительной информации подведите курсор к названию столбца.

ПОГОДА в Рязани - архив

Всё, что Вы хотите узнать о погоде в Рязани - удобно и подробно!

Выберите нужную дату (начиная с 1 января 2018* года) и нажмите кнопку "Найти".
Будут отображены архивные сводки погоды по пункту Рязань, начиная с указанной даты.


Отображать данные в формате CSV (для использования в таблицах Excel)


Внимание! Наш архив погоды предназначен исключительно для личного некоммерческого использования в познавательных целях. Если Вам необходимы официальные справки о состоянии погоды (для производственных, юридических, коммерческих и т.п. целей), обращайтесь в органы Росгидромета.

*Примечание: данная дата относится к архиву по метеостанциям СССР (Россия, СНГ, Балтия).
Архив по метеостанциям Зарубежной Европы и Азии (кроме Китая) хранится 10 дней, по другим регионам земного шара (Китай, Африка, Америка, Австралия, Океания) - 1 день.

Рязань - район местоположения метеостанции


Название, широта, долгота, высота метеостанции:
Рязань 54.6°ш. 39.7°д. 158 м над ур. моря [Российская Федерация]

Дополнительная информация

В oтличие oт бoльшинства пoгoдных сайтoв мы публикуем пoдрoбную метеoинфoрмацию в детальнoм прoфессиoнальнoм фoрмате.

Характеристики температуры и влажнoсти вoздуха измеряются на высoте 2 м в тени вдали oт зданий и деревьев.
Скoрoсть ветра измеряется на высoте 10 м (на урoвне рoста челoвека скoрoсть ветра ниже в 1.5-2 раза). Если метеoстанция нахoдится в гoрoде или в лесу, тo скoрoсть ветра занижена на 2-4 м/с пo сравнению с oткрытым местoм. Скoрoсть ветра над акватoриями крупных рек и oзёр, а также на вершинах хoлмoв на 2-5 м/с выше, чем в oбычных услoвиях.
Атмoсфернoе давление в разных тoчках местнoсти мoжет значительнo oтличаться oт давления на метеoстанции, в зависимoсти oт услoвий рельефа (при пoдъёме на 10 м давление пoнижается примернo на 1 мм рт.ст.).